This demonstration page uses our WeatherBlox Daily Observations layout. Learn more.

Left ArrowRight Arrow

41.86663, -103.66717

Hourly Observations for September 3, 2020

Temp ( °F °C ) Dew Point ( °F °C ) Humidity (%) Winds ( mph kmh ) Pressure ( in mb ) Visibility ( mi km ) Precip ( " mm )
12:53 am 00:53 Clear 68 20 44 6.7 42 42 NNE 24 39 29.85 1011 10 16.0934 0 0
1:53 am 01:53 Clear 65 18.3 43 6.1 45 45 NNE 7 11 29.93 1014 10 16.0934 0 0
2:53 am 02:53 Clear 59 15 41 5 51 51 NNW 6 9 29.98 1015 10 16.0934 0 0
3:53 am 03:53 Clear 54 12.2 43 6.1 67 67 WNW 7 11 30.01 1016 10 16.0934 0 0
4:53 am 04:53 Clear 52 11.1 42 5.6 69 69 NW 6 9 30.02 1017 10 16.0934 0 0
5:53 am 05:53 Clear 50 10 42 5.6 74 74 NNW 5 7 30.06 1018 10 16.0934 0 0
6:53 am 06:53 Sunny 49 9.4 40 4.4 71 71 undefined N/A 30.11 1020 10 16.0934 0 0
7:53 am 07:53 Sunny 56 13.3 42 5.6 60 60 WNW 3 6 30.14 1021 10 16.0934 0 0
8:53 am 08:53 Sunny 61 16.1 39 3.9 44 44 WSW 6 9 30.16 1021 10 16.0934 0 0
9:53 am 09:53 Sunny 64 17.8 38 3.3 38 38 VRB 3 6 30.17 1022 10 16.0934 0 0
10:53 am 10:53 Sunny 67 19.4 38 3.3 35 35 Calm 30.16 1021 10 16.0934 0 0
11:53 am 11:53 Sunny 72 22.2 38 3.3 29 29 VRB 3 6 30.12 1020 10 16.0934 0 0
12:53 pm 12:53 Sunny 74 23.3 40 4.4 29 29 undefined N/A 30.07 1018 10 16.0934 0 0
1:53 pm 13:53 Sunny 77 25 40 4.4 26 26 undefined N/A 30.05 1018 10 16.0934 0 0
2:53 pm 14:53 Sunny 79 26.1 41 5 26 26 VRB 3 6 30.03 1017 10 16.0934 0 0
3:53 pm 15:53 Sunny 81 27.2 41 5 24 24 ESE 6 9 30 1016 10 16.0934 0 0
4:53 pm 16:53 Sunny 82 27.8 42 5.6 24 24 ESE 9 15 29.98 1015 10 16.0934 0 0
5:53 pm 17:53 Sunny 81 27.2 43 6.1 26 26 E 8 13 29.98 1015 10 16.0934 0 0
6:53 pm 18:53 Sunny 75 23.9 50 10 41 41 ENE 7 11 30.01 1016 10 16.0934 0 0
7:53 pm 19:53 Clear 68 20 49 9.4 51 51 E 8 13 30.02 1017 10 16.0934 0 0
8:53 pm 20:53 Clear 64 17.8 47 8.3 54 54 ESE 9 15 30.03 1017 10 16.0934 0 0
9:53 pm 21:53 Clear 60 15.6 48 8.9 65 65 undefined N/A 30.04 1017 9 14.48406 0 0
10:53 pm 22:53 Clear 63 17.2 42 5.6 47 47 SE 7 11 30.03 1017 10 16.0934 0 0
11:53 pm 23:53 Clear 60 15.6 42 5.6 52 52 E 9 15 30.04 1017 10 16.0934 0 0

Powered by AerisWeather